Back to catalog

MKA-N 1

AliveScienceSSO
NORAD 42834·PAYLOAD·🇷🇺 Russia
This satellite name has not been confirmed by official sources yet.

Launched Jul 14, 2017 from Baikonur Cosmodrome

Loading…

Next Passes (next 24 hours)

TLE

FreshSource: Space-Track

Epoch: Sep 13, 2026, 22:54 UTC

1 42834U 17042K   26256.95462893  .00002960  00000-0  18694-3 0  9990
2 42834  97.4325  55.7407 0010228 111.7187 248.5132 15.09778993500378

Track MKA-N 1 in real time with AllMySat

Download on the App Store